Regional Weather Roundup
Issued by NWS

Home | Current Version | Previous Version | Graphics & Text | Print | Product List | Glossary On
Versions: 1 2 3 4 5 6 7 8 9 10 11 12 13 14 15 16 17 18 19 20 21 22 23 24 25 26 27
000
ASUS45 KBOI 300810
RWRID

IDAHO REGIONAL WEATHER ROUNDUP
NATIONAL WEATHER SERVICE BOISE ID
200 AM MDT TUE AUG 30 2016

NOTE: "FAIR" INDICATES FEW OR NO CLOUDS BELOW 12000 FEET
WITH NO SIGNIFICANT WEATHER AND/OR OBSTRUCTIONS TO VISIBILITY

IDZ012-014-300900-
SOUTHWEST IDAHO


CITY           SKY/WX    TMP DP  RH WIND       PRES   REMARKS
BOISE          MOCLDY    74  32  21 SE5       29.99S
CALDWELL       MOCLDY    65  54  67 NE7       29.97F
MOUNTAIN HOME  PTCLDY    66  34  31 N2        30.01S
$$

IDZ016-017-300900-
SOUTHCENTRAL IDAHO


CITY           SKY/WX    TMP DP  RH WIND       PRES   REMARKS
BURLEY         MOCLDY    57  50  77 CALM      30.10F
JEROME         PTCLDY    64  37  36 NE10      30.11S
TWIN FALLS     PTCLDY    64  34  32 S12       30.11S
$$

IDZ019>023-300900-
SOUTHEAST IDAHO


CITY           SKY/WX    TMP DP  RH WIND       PRES   REMARKS
IDAHO FALLS    CLEAR     52  42  69 N5        30.19R
POCATELLO      CLOUDY    54  38  54 CALM      30.16S
REXBURG        CLOUDY    53  38  56 N3        30.20R
$$

IDZ006-010-011-018-031-032-300900-
CENTRAL IDAHO MOUNTAINS


CITY           SKY/WX    TMP DP  RH WIND       PRES   REMARKS
MCCALL         MOCLDY    52  36  54 CALM      30.18S
HAILEY         CLEAR     57  32  38 NW8       30.25S
STANLEY          N/A     49  27  42 SW3       30.33S
SALMON         CLOUDY   N/A N/A N/A MISG        N/A
CHALLIS        MOCLDY    61  30  31 W3        30.20S
$$

IDZ002-004-006-007-026-300900-
NORTHERN IDAHO


CITY           SKY/WX    TMP DP  RH WIND       PRES   REMARKS
LEWISTON       MOCLDY    71  41  33 S8        29.93S
LOWELL           N/A     62  52  69 CALM      29.99S
COEUR D`ALENE  CLEAR     61  45  55 E5        29.96S
MULLAN PASS    CLEAR     67  33  28 CALM      30.22F
$$




USA.gov is the U.S. government's official web portal to all federal, state and local government web resources and services.